GW3458 Weather Reports


time (UTC)temp
C
wind
direction
speed
KPH
gust
KPH
rain 1hr
cm
rain 24hr
cm
rain mn
cm
humidity
%
barometer
mb
20260906030254 23 285 0.0 3.2 0.00 0.00 0.00 92 1016.8
20260906025753 24 283 1.6 3.2 0.00 0.00 0.00 92 1016.9
20260906025248 24 286 0.0 4.8 0.00 0.00 0.00 91 1017.0
20260906024747 24 285 3.2 6.4 0.00 0.00 0.00 91 1017.0
20260906024245 24 266 0.0 3.2 0.00 0.00 0.00 91 1017.1
20260906023741 24 268 0.0 0.0 0.00 0.00 0.00 91 1017.0
20260906023237 24 256 0.0 0.0 0.00 0.00 0.00 91 1016.9
20260906022732 24 275 1.6 4.8 0.00 0.00 0.00 91 1016.9
20260906022227 25 282 0.0 4.8 0.00 0.00 0.00 91 1016.7
20260906021723 25 263 0.0 6.4 0.00 0.00 0.00 90 1016.9
20260906021222 25 261 0.0 1.6 0.00 0.00 0.00 90 1016.7
20260906020717 25 269 0.0 1.6 0.00 0.00 0.00 90 1016.8
20260906020211 25 263 0.0 12.9 0.00 0.00 0.00 90 1016.7
20260906015706 25 245 4.8 9.7 0.00 0.00 0.00 90 1016.8
20260906015205 25 274 1.6 4.8 0.00 0.00 0.00 89 1016.6
20260906014705 25 271 0.0 11.3 0.00 0.00 0.00 89 1016.7
20260906014201 25 305 3.2 6.4 0.00 0.00 0.00 89 1016.7
20260906013657 25 297 1.6 6.4 0.00 0.00 0.00 89 1016.5
20260906013152 26 276 1.6 4.8 0.00 0.00 0.00 88 1016.5
20260906012651 26 269 0.0 3.2 0.00 0.00 0.00 88 1016.3
20260906012146 26 272 4.8 9.7 0.00 0.00 0.00 87 1016.2
20260906011642 26 274 6.4 11.3 0.00 0.00 0.00 87 1016.3
20260906011142 26 280 3.2 11.3 0.00 0.00 0.00 86 1016.5
20260906010637 26 316 3.2 9.7 0.00 0.00 0.00 86 1016.3
20260906010134 27 264 0.0 3.2 0.00 0.00 0.00 86 1016.1
20260906005633 27 262 1.6 12.9 0.00 0.00 0.00 85 1016.2
20260906005133 27 272 3.2 11.3 0.00 0.00 0.00 85 1016.2
20260906004632 27 274 4.8 6.4 0.00 0.00 0.00 84 1016.0
20260906004127 27 265 3.2 16.1 0.00 0.00 0.00 84 1015.8
20260906003622 27 256 8.0 12.9 0.00 0.00 0.00 83 1015.6
20260906003118 28 277 4.8 9.7 0.00 0.00 0.00 82 1015.8
20260906002613 28 278 3.2 11.3 0.00 0.00 0.00 82 1015.8
20260906002107 28 301 9.7 12.9 0.00 0.00 0.00 81 1015.7
20260906001602 28 311 3.2 6.4 0.00 0.00 0.00 81 1015.7
20260906001057 28 306 1.6 4.8 0.00 0.00 0.00 80 1015.7
20260906000553 29 261 4.8 11.3 0.00 0.00 0.00 80 1015.7
20260906000048 29 265 3.2 9.7 0.00 0.00 0.00 79 1015.7
20260905235547 29 285 4.8 6.4 0.00 0.00 0.00 79 1015.6
20260905235042 30 286 8.0 11.3 0.00 0.00 0.00 78 1015.6
20260905234538 30 311 3.2 9.7 0.00 0.00 0.00 78 1015.9
20260905234033 30 272 3.2 9.7 0.00 0.00 0.00 77 1015.5
20260905233532 30 250 3.2 11.3 0.00 0.00 0.00 77 1015.7
20260905233027 31 277 0.0 12.9 0.00 0.00 0.00 76 1015.4
20260905232522 31 267 1.6 9.7 0.00 0.00 0.00 76 1015.3
20260905232018 31 294 3.2 14.5 0.00 0.00 0.00 76 1015.4
20260905231513 31 297 4.8 11.3 0.00 0.00 0.00 76 1015.2
20260905231010 31 314 4.8 14.5 0.00 0.00 0.00 75 1015.0
20260905230508 32 241 6.4 17.7 0.00 0.00 0.00 74 1015.1
20260905230007 32 303 3.2 9.7 0.00 0.00 0.00 73 1015.0
20260905225502 32 263 12.9 17.7 0.00 0.00 0.00 72 1015.1
20260905224957 32 261 0.0 6.4 0.00 0.00 0.00 71 1015.1
20260905224452 33 275 1.6 9.7 0.00 0.00 0.00 70 1015.1
20260905223951 33 233 1.6 3.2 0.00 0.00 0.00 69 1015.0
20260905223449 33 261 1.6 4.8 0.00 0.00 0.00 68 1015.1
20260905222944 33 266 0.0 3.2 0.00 0.00 0.00 70 1015.1
20260905222444 33 250 3.2 4.8 0.00 0.00 0.00 68 1015.1
20260905221939 33 268 4.8 4.8 0.00 0.00 0.00 68 1015.3
20260905221436 33 266 4.8 11.3 0.00 0.00 0.00 68 1015.1
20260905220932 33 248 1.6 4.8 0.00 0.00 0.00 68 1015.1
20260905220428 33 267 6.4 6.4 0.00 0.00 0.00 67 1015.1
20260905215926 33 252 0.0 4.8 0.00 0.00 0.00 67 1014.9
20260905215417 33 269 1.6 9.7 0.00 0.00 0.00 67 1015.0
20260905214913 35 264 0.0 3.2 0.00 0.00 0.00 65 1015.2
20260905214408 34 286 0.0 6.4 0.00 0.00 0.00 65 1015.0
20260905213907 35 297 3.2 9.7 0.00 0.00 0.00 64 1015.0
20260905213404 33 268 1.6 4.8 0.00 0.00 0.00 66 1014.9
20260905212859 34 243 3.2 6.4 0.00 0.00 0.00 65 1015.0
20260905212354 35 266 0.0 3.2 0.00 0.00 0.00 64 1014.6
20260905211853 35 248 0.0 3.2 0.00 0.00 0.00 64 1014.8
20260905211349 35 259 0.0 9.7 0.00 0.00 0.00 63 1014.9
20260905210840 33 261 0.0 4.8 0.00 0.00 0.00 66 1014.9
20260905210340 35 237 0.0 4.8 0.00 0.00 0.00 64 1015.0
20260905205839 35 259 0.0 6.4 0.00 0.00 0.00 64 1015.0
20260905205333 34 258 0.0 1.6 0.00 0.00 0.00 67 1015.0
20260905204833 34 250 0.0 3.2 0.00 0.00 0.00 68 1015.1
20260905204329 34 294 3.2 9.7 0.00 0.00 0.00 67 1015.1
20260905203827 33 263 0.0 11.3 0.00 0.00 0.00 69 1015.0
20260905203324 33 266 1.6 6.4 0.00 0.00 0.00 69 1015.2
20260905202819 33 254 6.4 9.7 0.00 0.00 0.00 69 1015.2
20260905202314 33 271 1.6 9.7 0.00 0.00 0.00 69 1015.3
20260905201809 34 262 0.0 3.2 0.00 0.00 0.00 67 1015.1
20260905201304 34 258 0.0 3.2 0.00 0.00 0.00 69 1015.3
20260905200759 33 244 6.4 11.3 0.00 0.00 0.00 69 1015.4
20260905200255 33 250 0.0 6.4 0.00 0.00 0.00 70 1015.3
20260905195753 34 267 1.6 4.8 0.00 0.00 0.00 66 1015.4
20260905195248 34 252 0.0 3.2 0.00 0.00 0.00 68 1015.3
20260905194744 34 249 0.0 3.2 0.00 0.00 0.00 67 1015.4
20260905194242 35 280 4.8 6.4 0.00 0.00 0.00 67 1015.5
20260905193737 35 259 0.0 1.6 0.00 0.00 0.00 66 1015.3
20260905193232 35 301 1.6 3.2 0.00 0.00 0.00 65 1015.3
20260905192727 35 261 0.0 6.4 0.00 0.00 0.00 68 1015.5
20260905192224 34 246 0.0 1.6 0.00 0.00 0.00 68 1015.5
20260905191723 34 250 0.0 1.6 0.00 0.00 0.00 68 1015.3
20260905191221 35 244 6.4 9.7 0.00 0.00 0.00 67 1015.6
20260905190720 34 245 4.8 11.3 0.00 0.00 0.00 67 1015.5
20260905190219 33 265 0.0 3.2 0.00 0.00 0.00 68 1015.5
20260905185718 34 305 3.2 4.8 0.00 0.00 0.00 67 1015.6
20260905185213 34 238 3.2 9.7 0.00 0.00 0.00 68 1015.6
20260905184713 35 237 3.2 9.7 0.00 0.00 0.00 68 1015.5
20260905184212 34 285 4.8 6.4 0.00 0.00 0.00 65 1015.7
20260905183706 34 183 4.8 6.4 0.00 0.00 0.00 67 1016.0
20260905183202 34 243 1.6 9.7 0.00 0.00 0.00 67 1015.8
20260905182700 34 286 1.6 6.4 0.00 0.00 0.00 67 1015.8
20260905182154 34 259 0.0 6.4 0.00 0.00 0.00 67 1015.8
20260905181650 35 218 0.0 1.6 0.00 0.00 0.00 68 1015.9
20260905181149 34 280 1.6 3.2 0.00 0.00 0.00 69 1015.7
20260905180644 34 274 0.0 4.8 0.00 0.00 0.00 69 1015.8
20260905180139 34 245 0.0 3.2 0.00 0.00 0.00 69 1015.7
20260905175637 33 263 0.0 1.6 0.00 0.00 0.00 69 1016.1
20260905175133 33 222 0.0 6.4 0.00 0.00 0.00 70 1015.9
20260905174629 33 264 0.0 1.6 0.00 0.00 0.00 70 1016.0
20260905174124 33 301 0.0 6.4 0.00 0.00 0.00 69 1016.0
20260905173620 33 280 0.0 6.4 0.00 0.00 0.00 71 1016.2
20260905173116 35 234 1.6 6.4 0.00 0.00 0.00 68 1016.1
20260905172614 33 293 1.6 4.8 0.00 0.00 0.00 68 1016.2
20260905172104 33 240 0.0 4.8 0.00 0.00 0.00 69 1016.1
20260905171600 33 268 1.6 9.7 0.00 0.00 0.00 71 1016.2
20260905171056 33 239 0.0 1.6 0.00 0.00 0.00 69 1016.3
20260905170553 33 276 1.6 6.4 0.00 0.00 0.00 72 1016.2
20260905170048 33 290 0.0 4.8 0.00 0.00 0.00 71 1016.3
20260905165542 33 243 1.6 3.2 0.00 0.00 0.00 70 1016.4
20260905165037 33 249 1.6 4.8 0.00 0.00 0.00 71 1016.3
20260905164532 33 249 0.0 6.4 0.00 0.00 0.00 71 1016.4
20260905164027 34 274 1.6 1.6 0.00 0.00 0.00 68 1016.4
20260905163523 33 272 0.0 6.4 0.00 0.00 0.00 71 1016.5
20260905163019 33 259 0.0 0.0 0.00 0.00 0.00 72 1016.2
20260905162515 32 303 1.6 3.2 0.00 0.00 0.00 71 1016.5
20260905162009 33 259 0.0 9.7 0.00 0.00 0.00 72 1016.6
20260905161508 32 242 1.6 3.2 0.00 0.00 0.00 74 1016.3
20260905161006 32 274 0.0 3.2 0.00 0.00 0.00 73 1016.4
20260905160459 32 250 0.0 3.2 0.00 0.00 0.00 73 1016.2
20260905155959 31 271 0.0 9.7 0.00 0.00 0.00 74 1016.5
20260905155454 32 250 4.8 9.7 0.00 0.00 0.00 73 1016.3
20260905154953 31 260 0.0 4.8 0.00 0.00 0.00 75 1016.4
20260905154448 31 258 1.6 4.8 0.00 0.00 0.00 74 1016.1
20260905153943 31 270 3.2 9.7 0.00 0.00 0.00 74 1016.4
20260905153440 31 261 3.2 4.8 0.00 0.00 0.00 73 1016.3
20260905152939 31 265 4.8 4.8 0.00 0.00 0.00 73 1016.3
20260905152439 31 270 1.6 1.6 0.00 0.00 0.00 73 1016.0
20260905151928 32 182 4.8 6.4 0.00 0.00 0.00 73 1016.3
20260905151419 31 281 0.0 3.2 0.00 0.00 0.00 73 1016.0
20260905150918 31 243 0.0 0.0 0.00 0.00 0.00 73 1016.0
20260905150413 31 270 0.0 6.4 0.00 0.00 0.00 74 1016.1
20260905145909 31 266 0.0 0.0 0.00 0.00 0.00 74 1015.9
20260905145409 31 255 0.0 0.0 0.00 0.00 0.00 73 1016.1
20260905144904 31 260 0.0 4.8 0.00 0.00 0.00 74 1016.0
20260905144359 30 245 0.0 1.6 0.00 0.00 0.00 76 1015.9
20260905143857 30 252 1.6 4.8 0.00 0.00 0.00 76 1015.8
20260905143351 30 262 1.6 6.4 0.00 0.00 0.00 76 1015.8
20260905142846 31 253 0.0 1.6 0.00 0.00 0.00 76 1015.8
20260905142344 31 264 0.0 1.6 0.00 0.00 0.00 74 1015.7
20260905141841 31 262 0.0 0.0 0.00 0.00 0.00 76 1015.4
20260905141336 30 250 0.0 0.0 0.00 0.00 0.00 75 1016.0
20260905140832 30 268 0.0 0.0 0.00 0.00 0.00 76 1015.7
20260905140332 30 259 0.0 3.2 0.00 0.00 0.00 77 1015.7
20260905135830 30 246 0.0 0.0 0.00 0.00 0.00 79 1015.8
20260905135326 30 234 0.0 0.0 0.00 0.00 0.00 77 1015.7
20260905134821 30 266 0.0 0.0 0.00 0.00 0.00 79 1015.5
20260905134314 29 253 0.0 0.0 0.00 0.00 0.00 79 1015.5
20260905133809 29 272 0.0 0.0 0.00 0.00 0.00 80 1015.5
20260905133305 29 263 0.0 0.0 0.00 0.00 0.00 81 1015.6
20260905132803 28 265 0.0 0.0 0.00 0.00 0.00 82 1015.5
20260905132259 28 278 0.0 1.6 0.00 0.00 0.00 84 1015.7
20260905131754 27 234 0.0 0.0 0.00 0.00 0.00 86 1015.5
20260905131249 27 259 0.0 0.0 0.00 0.00 0.00 89 1015.9
20260905130744 27 258 0.0 0.0 0.00 0.00 0.00 93 1015.9
20260905130243 26 265 0.0 0.0 0.00 0.00 0.00 95 1015.6
20260905125738 25 286 0.0 0.0 0.00 0.00 0.00 99 1015.6
20260905125233 25 265 0.0 0.0 0.00 0.00 0.00 99 1015.3
20260905124730 24 269 0.0 0.0 0.00 0.00 0.00 99 1015.3
20260905124225 24 265 0.0 0.0 0.00 0.00 0.00 99 1015.4
20260905123720 23 263 0.0 0.0 0.00 0.00 0.00 99 1015.2
20260905123218 23 256 0.0 0.0 0.00 0.00 0.00 99 1015.1
20260905122717 23 258 0.0 0.0 0.00 0.00 0.00 99 1015.4
20260905122211 23 264 0.0 0.0 0.00 0.00 0.00 99 1015.2
20260905121706 23 257 0.0 0.0 0.00 0.00 0.00 99 1015.2
20260905121203 23 257 0.0 0.0 0.00 0.00 0.00 99 1015.2
20260905120701 23 257 0.0 0.0 0.00 0.00 0.00 99 1015.3
20260905120155 23 269 0.0 0.0 0.00 0.00 0.00 99 1015.1
20260905115650 22 261 0.0 0.0 0.00 0.00 0.00 99 1015.0
20260905115145 22 262 0.0 0.0 0.00 0.00 0.00 99 1015.3
20260905114645 22 262 0.0 0.0 0.00 0.00 0.00 99 1015.1
20260905114143 22 259 0.0 0.0 0.00 0.00 0.00 99 1014.6
20260905113637 22 257 0.0 0.0 0.00 0.00 0.00 99 1015.0
20260905113133 22 257 0.0 0.0 0.00 0.00 0.00 99 1014.8
20260905112627 22 257 0.0 0.0 0.00 0.00 0.00 99 1014.9
20260905112124 22 257 0.0 0.0 0.00 0.00 0.00 99 1014.8
20260905111624 22 261 0.0 0.0 0.00 0.00 0.00 99 1014.9
20260905111123 22 259 0.0 0.0 0.00 0.00 0.00 99 1014.6
20260905110622 22 257 0.0 0.0 0.00 0.00 0.00 99 1014.8
20260905110117 22 257 0.0 0.0 0.00 0.00 0.00 99 1014.8
20260905105618 22 257 0.0 0.0 0.00 0.00 0.00 99 1014.9
20260905105116 23 259 0.0 0.0 0.00 0.00 0.00 99 1014.6
20260905104612 23 257 0.0 0.0 0.00 0.00 0.00 99 1014.8
20260905104113 23 259 0.0 0.0 0.00 0.00 0.00 99 1015.0
20260905103608 23 260 0.0 0.0 0.00 0.00 0.00 99 1015.1
20260905103104 23 258 0.0 0.0 0.00 0.00 0.00 99 1014.9
20260905102554 23 259 0.0 0.0 0.00 0.00 0.00 99 1014.9
20260905102051 23 258 0.0 0.0 0.00 0.00 0.00 99 1014.6
20260905101549 23 259 0.0 0.0 0.00 0.00 0.00 99 1014.9
20260905101047 23 264 0.0 0.0 0.00 0.00 0.00 99 1014.6
20260905100544 23 259 0.0 0.0 0.00 0.00 0.00 99 1014.9
20260905100043 23 259 0.0 0.0 0.00 0.00 0.00 99 1014.9
20260905095537 23 260 0.0 0.0 0.00 0.00 0.00 99 1014.6
20260905095033 23 262 0.0 0.0 0.00 0.00 0.00 99 1014.6
20260905094527 23 257 0.0 0.0 0.00 0.00 0.00 99 1015.0
20260905094027 23 259 0.0 0.0 0.00 0.00 0.00 99 1014.9
20260905093516 23 260 0.0 0.0 0.00 0.00 0.00 99 1015.1
20260905093013 23 260 0.0 0.0 0.00 0.00 0.00 99 1015.0
20260905092512 23 267 0.0 0.0 0.00 0.00 0.00 99 1014.9
20260905092009 23 259 0.0 0.0 0.00 0.00 0.00 99 1014.9
20260905091508 23 264 0.0 0.0 0.00 0.00 0.00 99 1014.9
20260905091002 23 260 0.0 0.0 0.00 0.00 0.00 99 1014.9
20260905090457 23 262 0.0 0.0 0.00 0.00 0.00 99 1014.6
20260905085956 23 263 0.0 0.0 0.00 0.00 0.00 99 1014.8
20260905085455 23 262 0.0 0.0 0.00 0.00 0.00 99 1014.9
20260905084951 23 264 0.0 0.0 0.00 0.00 0.00 99 1014.9
20260905084451 23 261 0.0 0.0 0.00 0.00 0.00 99 1015.1
20260905083951 23 259 0.0 0.0 0.00 0.00 0.00 99 1014.9
20260905083447 23 260 0.0 0.0 0.00 0.00 0.00 99 1015.1
20260905082942 23 267 0.0 0.0 0.00 0.00 0.00 99 1015.1
20260905082438 23 260 0.0 0.0 0.00 0.00 0.00 99 1015.0
20260905081934 23 266 0.0 0.0 0.00 0.00 0.00 99 1015.2
20260905081433 23 261 0.0 0.0 0.00 0.00 0.00 99 1015.0
20260905080932 23 268 0.0 0.0 0.00 0.00 0.00 99 1015.2
20260905080427 23 259 0.0 0.0 0.00 0.00 0.00 99 1015.2
20260905075926 24 263 0.0 0.0 0.00 0.00 0.00 99 1015.1
20260905075421 24 269 0.0 0.0 0.00 0.00 0.00 99 1015.2
20260905074919 24 262 0.0 0.0 0.00 0.00 0.00 99 1015.2
20260905074415 24 257 0.0 0.0 0.00 0.00 0.00 99 1015.2
20260905073906 24 261 0.0 0.0 0.00 0.00 0.00 99 1015.1
20260905073401 24 259 0.0 0.0 0.00 0.00 0.00 99 1015.3
20260905072856 24 265 0.0 0.0 0.00 0.00 0.00 99 1015.2
20260905072350 24 259 0.0 0.0 0.00 0.00 0.00 99 1015.3
20260905071847 24 259 0.0 0.0 0.00 0.00 0.00 99 1015.1
20260905071343 24 260 0.0 0.0 0.00 0.00 0.00 99 1015.4
20260905070842 24 265 0.0 0.0 0.00 0.00 0.00 99 1015.4
20260905070339 25 266 0.0 0.0 0.00 0.00 0.00 98 1015.3
20260905065838 25 258 0.0 0.0 0.00 0.00 0.00 98 1015.3
20260905065336 25 280 0.0 0.0 0.00 0.00 0.00 97 1015.2
20260905064832 25 260 0.0 0.0 0.00 0.00 0.00 97 1015.3
20260905064328 25 266 0.0 0.0 0.00 0.00 0.00 98 1015.3
20260905063826 25 286 0.0 0.0 0.00 0.00 0.00 98 1015.4
20260905063322 25 264 0.0 0.0 0.00 0.00 0.00 99 1015.3
20260905062818 25 264 0.0 0.0 0.00 0.00 0.00 99 1015.5
20260905062313 25 262 0.0 0.0 0.00 0.00 0.00 99 1015.3
20260905061808 25 266 0.0 0.0 0.00 0.00 0.00 99 1015.7
20260905061307 25 265 0.0 0.0 0.00 0.00 0.00 99 1015.6
20260905060802 25 269 0.0 0.0 0.00 0.00 0.00 99 1015.4
20260905060259 25 267 0.0 0.0 0.00 0.00 0.00 99 1015.8
20260905055757 25 264 0.0 0.0 0.00 0.00 0.00 98 1015.6
20260905055252 25 261 0.0 0.0 0.00 0.00 0.00 98 1015.8
20260905054747 25 260 0.0 0.0 0.00 0.00 0.00 98 1015.5
20260905054244 25 263 0.0 0.0 0.00 0.00 0.00 98 1015.8
20260905053743 25 265 0.0 0.0 0.00 0.00 0.00 98 1015.5
20260905053238 25 262 0.0 0.0 0.00 0.00 0.00 98 1015.8
20260905052738 25 264 0.0 0.0 0.00 0.00 0.00 98 1015.5
20260905052233 25 260 0.0 0.0 0.00 0.00 0.00 98 1015.8
20260905051732 25 265 0.0 0.0 0.00 0.00 0.00 98 1015.5
20260905051229 25 269 0.0 0.0 0.00 0.00 0.00 98 1015.5
20260905050725 25 261 0.0 0.0 0.00 0.00 0.00 98 1015.6
20260905050222 25 270 0.0 0.0 0.00 0.00 0.00 98 1015.5
20260905045721 25 266 0.0 0.0 0.00 0.00 0.00 98 1015.5
20260905045217 25 260 0.0 0.0 0.00 0.00 0.00 98 1015.5
20260905044712 25 259 0.0 0.0 0.00 0.00 0.00 98 1015.6
20260905044208 25 258 0.0 0.0 0.00 0.00 0.00 98 1015.5
20260905043706 25 262 0.0 0.0 0.00 0.00 0.00 97 1015.8
20260905043201 25 261 0.0 0.0 0.00 0.00 0.00 97 1015.7
20260905042700 25 262 0.0 0.0 0.00 0.00 0.00 97 1016.0
20260905042155 25 262 0.0 0.0 0.00 0.00 0.00 97 1015.4
20260905041651 25 263 0.0 0.0 0.00 0.00 0.00 97 1015.5
20260905041146 25 265 0.0 0.0 0.00 0.00 0.00 97 1015.5
20260905040641 25 262 0.0 0.0 0.00 0.00 0.00 97 1015.6
20260905040139 25 272 0.0 0.0 0.00 0.00 0.00 97 1015.5
20260905035634 25 272 0.0 0.0 0.00 0.00 0.00 97 1015.5
20260905035131 26 267 0.0 0.0 0.00 0.00 0.00 97 1015.5
20260905034626 26 262 0.0 0.0 0.00 0.00 0.00 97 1015.5
20260905034125 26 262 0.0 0.0 0.00 0.00 0.00 97 1015.5
20260905033620 26 276 0.0 0.0 0.00 0.00 0.00 97 1015.4
20260905033115 26 265 0.0 0.0 0.00 0.00 0.00 97 1015.6
20260905032609 26 262 0.0 0.0 0.00 0.00 0.00 96 1015.5
20260905032104 26 270 0.0 0.0 0.00 0.00 0.00 96 1015.7
20260905031600 26 266 0.0 0.0 0.00 0.00 0.00 96 1015.8
20260905031100 26 269 0.0 0.0 0.00 0.00 0.00 96 1015.5
20260905030555 26 266 0.0 0.0 0.00 0.00 0.00 96 1015.5